[[{"header":{"parameterUnit":"m.s-1","parameterCategory":1,"la1":30.2991,"la2":30.254,"lo1":-89.0895,"lo2":-89.0444,"dy":0.0017,"dx":0.0017,"nx":28,"ny":28,"refTime":"2025-01-29T09:00:00:Z","depth":0,"parameterNumber":2,"parameterNumberName":"U-component_of_WINDS"},"data":[0,0,0,0,0,0,0,0,0,0,0,0,0,0,0,0,0,0,0,0,0,0,0,0,0,0,0,0,0,0,0,0,0,0,0,0,0,0,0,0,0,0,0,0,0,0,0,0,0,0,0,0,0,0,0,0,0,0,-4.0481,-4.0481,0,-4.0538,-4.0539,-4.0539,-4.0486,-4.0484,-4.0482,-4.048,-4.0541,-4.0545,-4.0548,0,0,0,0,0,0,0,0,0,0,0,0,0,-4.0326,-4.033,-4.0481,-4.0481,-4.0482,-4.0538,-4.0539,-4.054,-4.0487,-4.0484,-4.0482,-4.0479,-4.054,-4.0544,-4.0549,0,0,0,0,0,0,0,0,0,0,0,0,0,-4.039,-4.0331,-4.048,-4.0462,-4.0461,-4.0538,-4.0539,-4.054,-4.0487,-4.0484,-4.0481,-4.0478,-4.0539,-4.0544,-4.0549,-4.0647,0,0,-4.0566,-4.0568,0,0,0,0,0,0,0,0,-4.0386,-4.0395,-4.0464,-4.0464,-4.0463,-4.0502,-4.0507,-4.0576,-4.0488,-4.0478,-4.048,-4.0476,-4.0531,-4.0537,-4.0555,-4.065,-4.0653,-4.0566,-4.057,-4.0572,-4.0573,0,0,0,0,0,0,0,-4.0382,-4.0393,-4.0503,-4.0465,-4.0464,-4.0452,-4.0457,-4.052,-4.0522,-4.0478,-4.0474,-4.0482,-4.053,-4.0549,-4.0556,-4.0654,-4.0566,-4.0571,-4.0574,-4.0576,-4.0832,-4.0835,0,0,0,0,0,0,-4.0379,-4.0389,-4.0501,-4.0505,-4.0416,-4.0457,-4.0463,-4.0493,-4.0521,-4.0522,-4.0485,-4.0479,-4.0542,-4.0549,-4.0558,-4.0673,-4.0572,-4.0577,-4.058,-4.0828,-4.0832,-4.0836,0,0,0,0,0,0,-4.0376,-4.039,-4.0499,-4.0446,-4.0459,-4.0463,-4.0497,-4.0495,-4.0515,-4.0526,-4.0526,-4.0504,-4.054,-4.055,-4.0625,-4.0674,-4.0579,-4.0584,-4.0824,-4.0829,-4.0834,-4.0905,0,0,0,0,0,0,-4.0372,-4.0389,-4.0426,-4.0447,-4.0462,-4.0565,-4.05,-4.0499,-4.0524,-4.0518,-4.0544,-4.0545,-4.0538,-4.0617,-4.063,-4.068,-4.0589,-4.082,-4.0826,-4.0833,-4.0898,-4.0912,-4.0924,0,0,0,0,0,-4.0367,-4.0444,-4.0428,-4.0442,-4.0508,-4.0568,-4.0577,-4.0566,-4.0528,-4.0565,-4.0572,-4.0544,-4.0667,-4.0625,-4.064,-4.0692,-4.0816,-4.0824,-4.0832,-4.0893,-4.091,-4.0924,0,0,0,0,0,0,-4.0428,-4.0446,-4.0429,-4.0515,-4.0541,-4.0559,-4.0605,-4.0584,-4.0621,-4.0613,-4.0599,-4.0606,-4.0684,-4.0696,-4.0649,-4.0788,-4.0736,-4.0747,-4.0777,-4.0793,-4.0806,-4.08,-4.0593,0,0,0,0,0,-4.0452,-4.0499,-4.0512,-4.0587,-4.0601,-4.0601,-4.0627,-4.0616,-4.0642,-4.0653,-4.0665,-4.0692,-4.0736,-4.0766,-4.0807,-4.0901,-4.0905,-4.0944,-4.0957,-4.0967,-4.0976,-4.1026,-4.1043,-4.0862,-4.0862,-4.0862,0,0,-4.0501,-4.0517,-4.0547,-4.06,-4.0618,-4.0667,-4.0611,-4.0665,-4.0701,-4.0661,-4.0732,-4.0742,-4.0771,-4.0856,-4.0893,-4.0868,-4.1027,-4.0977,-4.0985,-4.0989,-4.1035,-4.1053,-4.1068,-4.0868,-4.0867,-4.0866,0,0,-4.0616,-4.0633,-4.0697,-4.0716,-4.0744,-4.0744,-4.076,-4.0782,-4.0786,-4.0857,-4.0829,-4.0872,-4.0949,-4.097,-4.0991,-4.1115,-4.109,-4.1129,-4.1195,-4.1243,-4.1258,-4.127,-4.1312,-4.1328,-4.1139,-4.1139,-4.1139,0,-4.0673,-4.0745,-4.0732,-4.0788,-4.0812,-4.0779,-4.0843,-4.0863,-4.0904,-4.0921,-4.0892,-4.0987,-4.1005,-4.1093,-4.1123,-4.1142,-4.1159,-4.1125,-4.1256,-4.1269,-4.128,-4.1321,-4.1337,-4.1143,-4.1143,-4.1142,-4.1142,0,-4.0814,-4.0864,-4.0913,-4.0952,-4.0981,-4.1042,-4.1038,-4.107,-4.1058,-4.1061,-4.1133,-4.1153,-4.1197,-4.1218,-4.1207,-4.1305,-4.1288,-4.1258,-4.1205,-4.1302,-4.134,-4.1355,-4.1149,-4.1148,-4.1147,-4.1146,0,0,-4.0967,-4.0999,-4.1016,-4.1033,-4.1062,-4.1101,-4.116,-4.1203,-4.123,-4.126,-4.1308,-4.1375,-4.1347,-4.1371,-4.1362,-4.1405,-4.15,-4.137,-4.137,-4.1391,-4.1608,-4.1628,-4.1646,-4.1484,-4.1487,-4.149,-4.1604,0,-4.1081,-4.1181,-4.1172,-4.1268,-4.1314,-4.1283,-4.1335,-4.1358,-4.1363,-4.1404,-4.141,-4.1456,-4.1417,-4.1431,-4.1472,-4.1479,-4.1542,-4.1471,-4.1529,-4.1531,-4.152,-4.1666,-4.1688,-4.1795,-4.1619,-4.1622,-4.1624,0,-4.1226,-4.126,-4.136,-4.1382,-4.1401,-4.1447,-4.1485,-4.1524,-4.1551,-4.1551,-4.1578,-4.1562,-4.1622,-4.1569,-4.1651,-4.1603,-4.1626,-4.1634,-4.1638,-4.1641,-4.1581,-4.1671,-4.1829,-4.1844,-4.1647,-4.1645,-4.1643,0,-4.1325,-4.1396,-4.1465,-4.1481,-4.1508,-4.1541,-4.1554,-4.1578,-4.1604,-4.1638,-4.1655,-4.1696,-4.1718,-4.1751,-4.1747,-4.1709,-4.183,-4.1777,-4.1831,-4.1831,-4.1856,-4.1854,-4.2018,-4.1875,-4.1875,-4.1875,-4.1874,0,-4.1452,-4.1514,-4.151,-4.1552,-4.162,-4.161,-4.1679,-4.1688,-4.1709,-4.1753,-4.173,-4.1772,-4.1765,-4.1806,-4.1804,-4.1871,-4.1882,-4.1884,-4.1882,-4.1885,-4.1884,-4.1898,-4.1889,-4.1879,-4.1878,-4.1877,-4.1876,0,-4.1573,-4.1573,-4.1645,-4.1665,-4.1672,-4.1722,-4.1739,-4.1779,-4.1783,-4.1838,-4.1851,-4.1856,-4.1904,-4.1904,-4.1959,-4.1957,-4.2039,-4.203,-4.203,-4.2027,-4.208,-4.2074,-4.2257,-4.2279,-4.2125,-4.2126,-4.2127,0,-4.1652,-4.1699,-4.1724,-4.1751,-4.1766,-4.1811,-4.1837,-4.1829,-4.1858,-4.1892,-4.1928,-4.1974,-4.2009,-4.2088,-4.2097,-4.2139,-4.213,-4.2191,-4.2136,-4.2136,-4.2128,-4.2124,-4.2128,-4.2201,-4.2203,-4.2204,-4.2205,0,-4.1793,-4.179,-4.1829,-4.1868,-4.19,-4.193,-4.1958,-4.1982,-4.1977,-4.2011,-4.2059,-4.2087,-4.2143,-4.2189,-4.2229,-4.2243,-4.2224,-4.2223,-4.2237,-4.2239,-4.2235,-4.2236,-4.2057,-4.2218,-4.2217,-4.2216,-4.2215,-4.2215,-4.1894,-4.1933,-4.1957,-4.2001,-4.2021,-4.2048,-4.2086,-4.2094,-4.2134,-4.2178,-4.2172,-4.2225,-4.2251,-4.2303,-4.2321,-4.2364,-4.2342,-4.2364,-4.2368,-4.2373,-4.2378,-4.2231,-4.2372,-4.2371,-4.2371,-4.2371,-4.237,0,-4.2031,-4.2045,-4.2085,-4.2124,-4.2159,-4.2138,-4.2168,-4.2198,-4.2245,-4.2271,-4.2306,-4.2362,-4.2406,-4.2419,-4.2462,-4.2493,-4.2485,-4.2505,-4.2501,-4.2504,-4.2396,-4.2378,-4.251,-4.251,-4.251,-4.251,-4.251,-4.251,-4.2106,-4.2171,-4.2172,-4.2248,-4.2261,-4.2313,-4.2332,-4.2356,-4.2376,-4.2439,-4.2475,-4.2484,-4.2504,-4.2548,-4.2588,-4.2591,-4.2607,-4.263,-4.2629,-4.2526,-4.2512,-4.2499,-4.2482,-4.2634,-4.2634,-4.2733,-4.2734,-4.2735]},{"header":{"parameterUnit":"m.s-1","parameterCategory":1,"la1":30.2991,"la2":30.254,"lo1":-89.0895,"lo2":-89.0444,"dy":0.0017,"dx":0.0017,"nx":28,"ny":28,"refTime":"2025-01-29T09:00:00:Z","depth":0,"parameterNumber":3,"parameterNumberName":"V-component_of_WINDS"},"data":[0,0,0,0,0,0,0,0,0,0,0,0,0,0,0,0,0,0,0,0,0,0,0,0,0,0,0,0,0,0,0,0,0,0,0,0,0,0,0,0,0,0,0,0,0,0,0,0,0,0,0,0,0,0,0,0,0,0,2.3719,2.3719,0,2.3729,2.3729,2.3729,2.3707,2.3706,2.3705,2.3704,2.3712,2.3713,2.3714,0,0,0,0,0,0,0,0,0,0,0,0,0,2.368,2.3681,2.3719,2.3719,2.3719,2.3729,2.3729,2.3729,2.3707,2.3706,2.3705,2.3704,2.3712,2.3713,2.3714,0,0,0,0,0,0,0,0,0,0,0,0,0,2.3694,2.3682,2.3719,2.3709,2.3708,2.3729,2.3729,2.3729,2.3707,2.3706,2.3705,2.3704,2.3711,2.3713,2.3714,2.3743,0,0,2.3718,2.3718,0,0,0,0,0,0,0,0,2.3694,2.3696,2.371,2.371,2.3709,2.3715,2.3718,2.3733,2.3707,2.3707,2.3704,2.3703,2.3714,2.3715,2.3719,2.3743,2.3744,2.3718,2.3719,2.3719,2.372,0,0,0,0,0,0,0,2.3693,2.3695,2.3723,2.3711,2.371,2.3704,2.3705,2.3721,2.3716,2.3707,2.3706,2.3707,2.3713,2.3718,2.3719,2.3744,2.3718,2.3719,2.372,2.372,2.3796,2.3797,0,0,0,0,0,0,2.3693,2.3695,2.3722,2.3723,2.3699,2.3706,2.3707,2.3714,2.3716,2.3715,2.3708,2.3706,2.3716,2.3717,2.3719,2.3756,2.3719,2.372,2.3721,2.3794,2.3796,2.3797,0,0,0,0,0,0,2.3692,2.3696,2.3722,2.3708,2.3711,2.3708,2.3716,2.3715,2.372,2.3717,2.3716,2.3714,2.3715,2.3717,2.3738,2.3756,2.3721,2.3722,2.3793,2.3795,2.3797,2.3828,0,0,0,0,0,0,2.3691,2.3696,2.3707,2.3709,2.3712,2.3741,2.3717,2.3716,2.3722,2.372,2.3722,2.3721,2.3715,2.3736,2.3739,2.3757,2.3723,2.3791,2.3794,2.3796,2.3825,2.383,2.3835,0,0,0,0,0,2.369,2.3714,2.3707,2.3711,2.3726,2.3742,2.3744,2.3737,2.3724,2.3735,2.3734,2.3721,2.3753,2.3739,2.3742,2.376,2.379,2.3793,2.3796,2.3823,2.3829,2.3835,0,0,0,0,0,0,2.3712,2.3714,2.3707,2.3732,2.3737,2.3738,2.3752,2.3743,2.3752,2.3749,2.3739,2.374,2.3763,2.3763,2.3747,2.379,2.3769,2.3773,2.3789,2.3795,2.38,2.38,2.3724,0,0,0,0,0,2.372,2.3733,2.3734,2.3756,2.3759,2.3755,2.3762,2.3756,2.3761,2.3763,2.3763,2.3768,2.3779,2.3787,2.3797,2.3825,2.3826,2.3839,2.3844,2.3848,2.3851,2.3869,2.3875,2.3806,2.3806,2.3806,0,0,2.3736,2.3739,2.3747,2.376,2.3764,2.3779,2.3757,2.3773,2.3784,2.3765,2.3786,2.3786,2.3791,2.3816,2.3827,2.3817,2.3871,2.3851,2.3854,2.3856,2.3873,2.3879,2.3885,2.3808,2.3808,2.3808,0,0,2.3773,2.3776,2.3796,2.3801,2.3807,2.3805,2.381,2.3813,2.3813,2.3834,2.3821,2.3834,2.3853,2.3858,2.3863,2.3905,2.3895,2.3908,2.3934,2.3952,2.3957,2.3962,2.398,2.3986,2.3912,2.3912,2.3912,0,2.3793,2.3815,2.3807,2.3825,2.3832,2.3818,2.3839,2.3843,2.3852,2.3857,2.3846,2.3872,2.3873,2.3901,2.3912,2.3916,2.3922,2.3909,2.3957,2.3962,2.3966,2.3983,2.3989,2.3914,2.3913,2.3913,2.3913,0,2.3839,2.3855,2.387,2.3882,2.389,2.3909,2.3905,2.3915,2.3909,2.3908,2.3931,2.3933,2.3945,2.395,2.3943,2.3978,2.3972,2.3959,2.3939,2.3975,2.3991,2.3997,2.3916,2.3916,2.3915,2.3915,0,0,2.389,2.3899,2.3905,2.3912,2.3919,2.3931,2.395,2.3963,2.3972,2.3979,2.3996,2.4013,2.4003,2.4008,2.4002,2.4017,2.4054,2.4003,2.4003,2.4014,2.4095,2.4107,2.4114,2.4047,2.4048,2.4049,2.4096,0,2.3929,2.3964,2.3959,2.3992,2.4008,2.3995,2.4012,2.4019,2.4019,2.4032,2.4031,2.4045,2.4028,2.4032,2.4046,2.4047,2.4071,2.4043,2.4064,2.4064,2.4065,2.4122,2.4133,2.4177,2.4101,2.4102,2.4103,0,2.3979,2.3991,2.4026,2.4034,2.404,2.4056,2.4069,2.4081,2.4089,2.4088,2.4096,2.4088,2.4108,2.4087,2.4115,2.4096,2.4104,2.4106,2.4107,2.411,2.4087,2.4128,2.4191,2.4198,2.4112,2.4111,2.4111,0,2.4016,2.404,2.4065,2.4071,2.4079,2.4091,2.4095,2.4102,2.4111,2.4122,2.4128,2.414,2.4148,2.4158,2.4154,2.4138,2.4184,2.4161,2.4185,2.4185,2.4196,2.4196,2.4263,2.4198,2.4198,2.4198,2.4197,0,2.4062,2.4085,2.4083,2.4098,2.4124,2.4118,2.4144,2.4146,2.4153,2.4169,2.4158,2.4173,2.4166,2.4181,2.4177,2.4203,2.4205,2.4206,2.4205,2.4209,2.4209,2.4215,2.4213,2.4199,2.4199,2.4199,2.4198,0,2.4108,2.4107,2.4134,2.4141,2.4144,2.4163,2.4169,2.4184,2.4184,2.4205,2.4209,2.4209,2.4226,2.4223,2.4241,2.4239,2.4272,2.4266,2.427,2.427,2.4294,2.4293,2.4369,2.438,2.4306,2.4307,2.4307,0,2.4138,2.4156,2.4166,2.4177,2.4182,2.4199,2.4209,2.4205,2.4216,2.4227,2.4241,2.4258,2.4272,2.43,2.4301,2.4316,2.4312,2.4338,2.4314,2.4318,2.4316,2.4316,2.4319,2.4343,2.4344,2.4344,2.4345,0,2.4193,2.4192,2.4208,2.4224,2.4237,2.4249,2.426,2.4269,2.4265,2.4278,2.4297,2.4308,2.4328,2.4346,2.436,2.4364,2.4355,2.4352,2.4359,2.4364,2.4366,2.4368,2.4286,2.4351,2.435,2.435,2.435,2.4349,2.4233,2.425,2.4261,2.4279,2.4287,2.4298,2.4314,2.4317,2.4333,2.435,2.4346,2.4368,2.4377,2.4396,2.4401,2.4418,2.4409,2.4418,2.442,2.4423,2.4428,2.4362,2.4421,2.442,2.442,2.442,2.442,0,2.429,2.4297,2.4314,2.4331,2.4346,2.4336,2.4349,2.4362,2.4382,2.4391,2.4406,2.4428,2.4446,2.4449,2.4466,2.448,2.4476,2.4484,2.4484,2.4486,2.4434,2.4428,2.4487,2.4487,2.4487,2.4487,2.4487,2.4487,2.4321,2.435,2.4351,2.4384,2.439,2.4413,2.4421,2.4432,2.444,2.4467,2.4482,2.4484,2.4492,2.451,2.4526,2.4526,2.4534,2.4545,2.4544,2.4496,2.4489,2.4483,2.4477,2.4546,2.4546,2.4595,2.4596,2.4596]}]]